{"data":{"norad_id":54163,"intl_designator":"2022-141G","name":"STARLINK-5161","alt_names":[],"object_type":"PAYLOAD","status":"ACTIVE","operator":null,"country":"US","launch_date":"2022-10-28","launch_site_code":"AFWTR","launch_vehicle":null,"mission":null,"orbit_class":"UNKNOWN","rcs_meters":null,"size_class":null,"mass_kg":null,"dimensions":null,"purposes":["comms"],"wikipedia_slug":null,"has_3d_model":false,"image_url":null,"decayed_at":null,"tle_current":{"epoch":"2026-09-20T07:14:21.446304Z","epoch_age_seconds":106816,"freshness":"FRESH","line1":"1 54163U 22141G   26263.30163711  .00000559  00000+0  27684-4 0  9999","line2":"2 54163  53.1600 194.6453 0001245  89.0179 271.0967 15.34390735215453","mean_motion":15.34390735,"eccentricity":0.0001245,"inclination_deg":53.16,"raan_deg":194.6453,"arg_perigee_deg":89.0179,"mean_anomaly_deg":271.0967,"bstar":2.7684e-5,"rev_number":21545,"period_min":93.848324755428,"perigee_km":461.87908983983,"apogee_km":463.58246591653,"semimajor_km":6840.8677778782,"source":"CELESTRAK","updated_at":"2026-09-21T09:00:33.088599Z"}}}